• In Uzbekistan
  • List of Countries
  • For 7 days
  • Water Temperature
  • Satellite Maps
  • Weather Map
  • Weather Widgets
  • user-avatar
    Login

    Hourly Weather Tarnowiec

    Today, 22 September, Saturday

    Time Temperature Precipitation Wind Pressure Humidity
    00:00 +18°C° 0 mm 3 mps 739 mmHg 62%
    01:00 +18°C° 0 mm 2 mps 739 mmHg 62%
    02:00 +18°C° 0.1 mm 3 mps 740 mmHg 64%
    03:00 +18°C° 0.1 mm 4 mps 740 mmHg 66%
    04:00 +17°C° 0.1 mm 5 mps 741 mmHg 69%
    05:00 +15°C° 0.7 mm 5 mps 742 mmHg 75%
    06:00 +14°C° 0.7 mm 5 mps 743 mmHg 81%
    07:00 +12°C° 0 mm 4 mps 743 mmHg 85%
    08:00 +12°C° 0.9 mm 4 mps 744 mmHg 85%
    09:00 +12°C° 0.9 mm 3 mps 744 mmHg 85%
    10:00 +12°C° 0.9 mm 3 mps 745 mmHg 85%
    11:00 +13°C° 0.4 mm 3 mps 745 mmHg 79%
    12:00 +13°C° 0.4 mm 3 mps 745 mmHg 73%
    13:00 +14°C° 0.4 mm 3 mps 745 mmHg 67%
    14:00 +16°C° 0 mm 3 mps 745 mmHg 63%
    15:00 +16°C° 0 mm 3 mps 744 mmHg 59%
    16:00 +17°C° 0 mm 3 mps 744 mmHg 56%
    17:00 +16°C° 0 mm 2 mps 744 mmHg 59%
    18:00 +14°C° 0 mm 2 mps 744 mmHg 62%
    19:00 +13°C° 0 mm 2 mps 744 mmHg 65%
    20:00 +13°C° 0 mm 2 mps 744 mmHg 65%
    21:00 +13°C° 0 mm 2 mps 745 mmHg 65%
    22:00 +13°C° 0 mm 2 mps 745 mmHg 65%
    23:00 +13°C° 0 mm 2 mps 745 mmHg 66%

    Tomorrow, 23 September, Sunday

    Time Temperature Precipitation Wind Pressure Humidity
    00:00 +13°C° 0 mm 2 mps 745 mmHg 67%
    01:00 +12°C° 0 mm 2 mps 744 mmHg 68%
    02:00 +11°C° 0 mm 3 mps 744 mmHg 69%
    03:00 +11°C° 0 mm 3 mps 744 mmHg 70%
    04:00 +11°C° 0 mm 3 mps 744 mmHg 71%
    05:00 +11°C° 0 mm 3 mps 744 mmHg 70%
    06:00 +12°C° 0 mm 3 mps 744 mmHg 69%
    07:00 +12°C° 0 mm 4 mps 744 mmHg 68%
    08:00 +14°C° 0 mm 4 mps 744 mmHg 61%
    09:00 +15°C° 0 mm 4 mps 744 mmHg 54%
    10:00 +18°C° 0 mm 4 mps 744 mmHg 47%
    11:00 +18°C° 0 mm 4 mps 743 mmHg 48%
    12:00 +18°C° 0 mm 4 mps 743 mmHg 48%
    13:00 +19°C° 0 mm 4 mps 742 mmHg 49%
    14:00 +18°C° 0.1 mm 3 mps 742 mmHg 55%
    15:00 +17°C° 0.1 mm 3 mps 741 mmHg 61%
    16:00 +16°C° 0.1 mm 2 mps 740 mmHg 66%
    17:00 +16°C° 0.2 mm 2 mps 739 mmHg 71%
    18:00 +14°C° 0.2 mm 3 mps 739 mmHg 75%
    19:00 +13°C° 0.2 mm 3 mps 738 mmHg 79%
    20:00 +14°C° 0.1 mm 4 mps 737 mmHg 76%
    21:00 +15°C° 0.1 mm 6 mps 736 mmHg 72%
    22:00 +15°C° 0.1 mm 7 mps 734 mmHg 69%
    23:00 +16°C° 1 mm 7 mps 734 mmHg 73%

    Day after tomorrow, 24 September, Monday

    Time Temperature Precipitation Wind Pressure Humidity
    00:00 +16°C° 1 mm 7 mps 733 mmHg 77%
    01:00 +16°C° 1 mm 6 mps 732 mmHg 80%
    02:00 +16°C° 1.2 mm 7 mps 732 mmHg 82%
    03:00 +15°C° 1.2 mm 8 mps 733 mmHg 84%
    04:00 +15°C° 1.2 mm 9 mps 733 mmHg 86%
    05:00 +12°C° 0.4 mm 8 mps 735 mmHg 85%
    06:00 +10°C° 0.4 mm 8 mps 736 mmHg 83%
    07:00 +7°C° 0.4 mm 8 mps 738 mmHg 82%
    08:00 +9°C° 0.2 mm 8 mps 739 mmHg 80%
    09:00 +9°C° 0.2 mm 8 mps 740 mmHg 77%
    10:00 +10°C° 0.2 mm 8 mps 741 mmHg 75%
    11:00 +10°C° 0.2 mm 9 mps 742 mmHg 69%
    12:00 +11°C° 0.2 mm 9 mps 742 mmHg 64%
    13:00 +12°C° 0.2 mm 9 mps 743 mmHg 58%
    14:00 +11°C° 0.1 mm 9 mps 743 mmHg 57%
    15:00 +11°C° 0.1 mm 9 mps 744 mmHg 56%
    16:00 +10°C° 0.1 mm 8 mps 744 mmHg 55%
    17:00 +9°C° 0 mm 7 mps 745 mmHg 56%
    18:00 +8°C° 0 mm 6 mps 745 mmHg 58%
    19:00 +7°C° 0 mm 5 mps 746 mmHg 60%
    20:00 +7°C° 0 mm 6 mps 746 mmHg 62%
    21:00 +7°C° 0 mm 6 mps 747 mmHg 64%
    22:00 +7°C° 0 mm 6 mps 747 mmHg 66%
    23:00 +6°C° 0.1 mm 5 mps 748 mmHg 69%

    25 September, Tuesday

    Time Temperature Precipitation Wind Pressure Humidity
    00:00 +6°C° 0.1 mm 5 mps 748 mmHg 71%
    01:00 +5°C° 0.1 mm 5 mps 748 mmHg 74%
    02:00 +5°C° 0.1 mm 5 mps 749 mmHg 76%
    03:00 +5°C° 0.1 mm 5 mps 749 mmHg 77%
    04:00 +5°C° 0.1 mm 5 mps 750 mmHg 79%
    05:00 +5°C° 0 mm 5 mps 751 mmHg 78%
    06:00 +5°C° 0 mm 5 mps 751 mmHg 77%
    07:00 +5°C° 0 mm 5 mps 752 mmHg 75%
    08:00 +7°C° 0.1 mm 6 mps 752 mmHg 68%
    09:00 +8°C° 0.1 mm 6 mps 753 mmHg 60%
    10:00 +9°C° 0.1 mm 7 mps 753 mmHg 53%
    11:00 +10°C° 0.1 mm 7 mps 753 mmHg 50%
    12:00 +10°C° 0.1 mm 7 mps 753 mmHg 47%
    13:00 +11°C° 0.1 mm 7 mps 754 mmHg 45%
    14:00 +10°C° 0.1 mm 6 mps 754 mmHg 48%
    15:00 +10°C° 0.1 mm 6 mps 754 mmHg 51%
    16:00 +10°C° 0.1 mm 6 mps 754 mmHg 53%
    17:00 +8°C° 0 mm 5 mps 755 mmHg 58%
    18:00 +8°C° 0 mm 3 mps 755 mmHg 63%
    19:00 +7°C° 0 mm 2 mps 756 mmHg 68%
    20:00 +6°C° 0 mm 2 mps 756 mmHg 69%
    21:00 +6°C° 0 mm 2 mps 757 mmHg 71%
    22:00 +5°C° 0 mm 2 mps 757 mmHg 72%
    23:00 +5°C° 0 mm 2 mps 758 mmHg 73%

    26 September, Wednesday

    Time Temperature Precipitation Wind Pressure Humidity
    00:00 +4°C° 0 mm 2 mps 758 mmHg 74%
    01:00 +4°C° 0 mm 2 mps 758 mmHg 75%
    02:00 +4°C° 0 mm 2 mps 758 mmHg 76%
    03:00 +3°C° 0 mm 2 mps 758 mmHg 76%
    04:00 +3°C° 0 mm 2 mps 758 mmHg 77%
    05:00 +4°C° 0 mm 2 mps 758 mmHg 73%
    06:00 +5°C° 0 mm 2 mps 758 mmHg 70%
    07:00 +6°C° 0 mm 2 mps 758 mmHg 67%
    08:00 +8°C° 0 mm 2 mps 758 mmHg 58%
    09:00 +10°C° 0 mm 2 mps 757 mmHg 50%
    10:00 +12°C° 0 mm 3 mps 757 mmHg 41%
    11:00 +13°C° 0 mm 3 mps 757 mmHg 39%
    12:00 +14°C° 0 mm 3 mps 756 mmHg 36%
    13:00 +15°C° 0 mm 4 mps 755 mmHg 33%
    14:00 +16°C° 0 mm 3 mps 755 mmHg 37%
    15:00 +16°C° 0 mm 3 mps 754 mmHg 41%
    16:00 +14°C° 0 mm 3 mps 754 mmHg 45%
    17:00 +13°C° 0 mm 3 mps 753 mmHg 48%
    18:00 +12°C° 0 mm 2 mps 753 mmHg 52%
    19:00 +10°C° 0 mm 2 mps 753 mmHg 55%
    20:00 +9°C° 0 mm 3 mps 753 mmHg 57%
    21:00 +9°C° 0 mm 3 mps 753 mmHg 59%
    22:00 +8°C° 0 mm 3 mps 753 mmHg 61%
    23:00 +8°C° 0 mm 3 mps 752 mmHg 62%

    27 September, Thursday

    Time Temperature Precipitation Wind Pressure Humidity
    00:00 +7°C° 0 mm 3 mps 752 mmHg 62%
    01:00 +7°C° 0 mm 3 mps 752 mmHg 63%
    02:00 +7°C° 0 mm 3 mps 751 mmHg 62%
    03:00 +7°C° 0 mm 3 mps 751 mmHg 61%
    04:00 +5°C° 0 mm 3 mps 751 mmHg 61%
    05:00 +7°C° 0 mm 3 mps 750 mmHg 59%
    06:00 +8°C° 0 mm 3 mps 750 mmHg 57%
    07:00 +8°C° 0 mm 3 mps 750 mmHg 55%
    08:00 +11°C° 0 mm 4 mps 750 mmHg 50%
    09:00 +13°C° 0 mm 4 mps 749 mmHg 45%
    10:00 +16°C° 0 mm 5 mps 749 mmHg 40%
    11:00 +17°C° 0 mm 5 mps 749 mmHg 38%
    12:00 +19°C° 0 mm 5 mps 748 mmHg 36%
    13:00 +20°C° 0 mm 5 mps 748 mmHg 34%
    14:00 +20°C° 0 mm 4 mps 747 mmHg 37%
    15:00 +19°C° 0 mm 4 mps 747 mmHg 41%
    16:00 +19°C° 0 mm 3 mps 746 mmHg 44%
    17:00 +18°C° 0 mm 3 mps 746 mmHg 46%
    18:00 +16°C° 0 mm 3 mps 746 mmHg 49%
    19:00 +14°C° 0 mm 3 mps 746 mmHg 52%
    20:00 +14°C° 0 mm 3 mps 746 mmHg 53%
    21:00 +13°C° 0 mm 3 mps 746 mmHg 54%
    22:00 +13°C° 0 mm 3 mps 746 mmHg 56%
    23:00 +13°C° 0 mm 3 mps 746 mmHg 56%
    Show more